Time,TemperatureF,DewpointF,PressureIn,WindDirection,WindDirectionDegrees,WindSpeedMPH,WindSpeedGustMPH,Humidity,HourlyPrecipIn,Conditions,Clouds,dailyrainin,SoftwareType,DateUTC
2013-03-03 00:01:00,36.0,29.0,-100.00,ESE,120,11.0,12.0,74,0.00,,,-99.99,,2013-03-03 07:01:00,
2013-03-03 00:11:00,36.0,29.0,-100.00,ESE,121,11.0,12.0,75,0.00,,,-99.99,,2013-03-03 07:11:00,
2013-03-03 00:21:00,36.0,29.0,-100.00,ESE,121,11.0,12.0,75,0.00,,,-99.99,,2013-03-03 07:21:00,
2013-03-03 00:31:00,36.0,29.0,-100.00,ESE,121,11.0,12.0,75,0.00,,,-99.99,,2013-03-03 07:31:00,
2013-03-03 00:42:00,35.0,29.0,-100.00,South,189,5.0,6.0,78,0.00,,,-99.99,,2013-03-03 07:42:00,
2013-03-03 00:52:00,34.0,29.0,-100.00,SSE,164,5.0,6.0,80,0.00,,,-99.99,,2013-03-03 07:52:00,
2013-03-03 01:01:00,34.0,29.0,-100.00,SSE,164,5.0,6.0,80,0.00,,,-99.99,,2013-03-03 08:01:00,
2013-03-03 01:11:00,34.0,29.0,-100.00,SSE,164,5.0,6.0,80,0.00,,,-99.99,,2013-03-03 08:11:00,
2013-03-03 01:21:00,35.0,29.0,-100.00,SE,140,5.0,6.0,79,0.00,,,-99.99,,2013-03-03 08:21:00,
2013-03-03 01:31:00,35.0,29.0,-100.00,SE,140,5.0,6.0,79,0.00,,,-99.99,,2013-03-03 08:31:00,
2013-03-03 01:41:00,37.0,29.0,-100.00,ESE,106,11.0,13.0,72,0.00,,,-99.99,,2013-03-03 08:41:00,
2013-03-03 01:54:00,37.0,29.0,-100.00,SE,124,10.0,11.0,73,0.00,,,-99.99,,2013-03-03 08:54:00,
2013-03-03 02:01:00,37.0,29.0,-100.00,SE,124,10.0,11.0,73,0.00,,,-99.99,,2013-03-03 09:01:00,
2013-03-03 02:11:00,37.0,29.0,-100.00,SE,136,9.0,10.0,73,0.00,,,-99.99,,2013-03-03 09:11:00,
2013-03-03 02:21:00,36.0,29.0,-100.00,SSE,158,3.0,4.0,77,0.00,,,-99.99,,2013-03-03 09:21:00,
2013-03-03 02:31:00,36.0,29.0,-100.00,SSE,158,3.0,4.0,77,0.00,,,-99.99,,2013-03-03 09:31:00,
2013-03-03 02:41:00,37.0,29.0,-100.00,SE,131,7.0,9.0,75,0.00,,,-99.99,,2013-03-03 09:41:00,
2013-03-03 02:52:00,36.0,29.0,-100.00,SSE,160,3.0,5.0,76,0.00,,,-99.99,,2013-03-03 09:52:00,
2013-03-03 03:01:00,36.0,29.0,-100.00,SSE,160,3.0,5.0,76,0.00,,,-99.99,,2013-03-03 10:01:00,
2013-03-03 03:11:00,36.0,29.0,-100.00,SSW,193,2.0,3.0,76,0.00,,,-99.99,,2013-03-03 10:11:00,
2013-03-03 03:21:00,36.0,29.0,-100.00,SSW,193,2.0,3.0,76,0.00,,,-99.99,,2013-03-03 10:21:00,
2013-03-03 03:31:00,36.0,29.0,-100.00,SSW,193,2.0,3.0,76,0.00,,,-99.99,,2013-03-03 10:31:00,
2013-03-03 03:41:00,35.0,29.0,-100.00,South,186,4.0,5.0,79,0.00,,,-99.99,,2013-03-03 10:41:00,
2013-03-03 03:52:00,35.0,30.0,-100.00,SSW,195,4.0,6.0,79,0.04,,,-99.99,,2013-03-03 10:52:00,
2013-03-03 04:01:00,35.0,30.0,-100.00,SSW,195,4.0,6.0,79,0.04,,,-99.99,,2013-03-03 11:01:00,
2013-03-03 04:11:00,36.0,30.0,-100.00,SE,143,4.0,4.0,78,0.08,,,-99.99,,2013-03-03 11:11:00,
2013-03-03 04:21:00,35.0,30.0,-100.00,South,189,5.0,6.0,80,0.00,,,-99.99,,2013-03-03 11:21:00,
2013-03-03 04:31:00,35.0,30.0,-100.00,South,189,5.0,6.0,80,0.00,,,-99.99,,2013-03-03 11:31:00,
2013-03-03 04:41:00,36.0,30.0,-100.00,SSE,155,3.0,4.0,79,0.00,,,-99.99,,2013-03-03 11:41:00,
2013-03-03 04:52:00,36.0,30.0,-100.00,SSE,155,3.0,4.0,79,0.00,,,-99.99,,2013-03-03 11:52:00,
2013-03-03 05:01:00,36.0,30.0,-100.00,SSE,155,3.0,4.0,79,0.00,,,-99.99,,2013-03-03 12:01:00,
2013-03-03 05:11:00,36.0,30.0,-100.00,SSW,202,6.0,8.0,79,0.00,,,-99.99,,2013-03-03 12:11:00,
2013-03-03 05:21:00,36.0,30.0,-100.00,South,176,7.0,8.0,79,0.00,,,-99.99,,2013-03-03 12:21:00,
2013-03-03 05:32:00,36.0,30.0,-100.00,South,176,7.0,8.0,79,0.00,,,-99.99,,2013-03-03 12:32:00,
2013-03-03 05:42:00,35.0,30.0,-100.00,SE,134,6.0,7.0,82,0.04,,,-99.99,,2013-03-03 12:42:00,
2013-03-03 05:52:00,35.0,30.0,-100.00,SSE,158,5.0,6.0,83,0.08,,,-99.99,,2013-03-03 12:52:00,
2013-03-03 06:01:00,35.0,30.0,-100.00,SSE,158,5.0,6.0,83,0.08,,,-99.99,,2013-03-03 13:01:00,
2013-03-03 06:11:00,35.0,30.0,-100.00,SE,126,6.0,7.0,84,0.08,,,-99.99,,2013-03-03 13:11:00,
2013-03-03 06:21:00,35.0,30.0,-100.00,SE,144,4.0,5.0,83,0.08,,,-99.99,,2013-03-03 13:21:00,
2013-03-03 06:31:00,35.0,30.0,-100.00,SE,144,4.0,5.0,83,0.08,,,-99.99,,2013-03-03 13:31:00,
2013-03-03 06:41:00,35.0,30.0,-100.00,SSW,199,3.0,4.0,84,0.04,,,-99.99,,2013-03-03 13:41:00,
2013-03-03 06:52:00,35.0,30.0,-100.00,South,171,3.0,3.0,81,0.00,,,-99.99,,2013-03-03 13:52:00,
2013-03-03 07:01:00,35.0,30.0,-100.00,South,171,3.0,3.0,81,0.00,,,-99.99,,2013-03-03 14:01:00,
2013-03-03 07:11:00,35.0,30.0,-100.00,SSW,198,0.0,1.0,82,0.08,,,-99.99,,2013-03-03 14:11:00,
2013-03-03 07:21:00,35.0,31.0,-100.00,SE,140,1.0,2.0,83,0.04,,,-99.99,,2013-03-03 14:21:00,
2013-03-03 07:31:00,35.0,31.0,-100.00,SE,140,1.0,2.0,83,0.04,,,-99.99,,2013-03-03 14:31:00,
2013-03-03 07:42:00,35.0,31.0,-100.00,ESE,109,3.0,4.0,87,0.04,,,-99.99,,2013-03-03 14:42:00,
2013-03-03 07:52:00,35.0,31.0,-100.00,SE,131,3.0,4.0,86,0.00,,,-99.99,,2013-03-03 14:52:00,
2013-03-03 08:01:00,35.0,31.0,-100.00,SE,131,3.0,4.0,86,0.00,,,-99.99,,2013-03-03 15:01:00,
2013-03-03 08:11:00,35.0,32.0,-100.00,ESE,116,4.0,5.0,86,0.00,,,-99.99,,2013-03-03 15:11:00,
2013-03-03 08:22:00,35.0,32.0,-100.00,ESE,116,4.0,5.0,86,0.00,,,-99.99,,2013-03-03 15:22:00,
2013-03-03 08:31:00,35.0,32.0,-100.00,ESE,116,4.0,5.0,86,0.00,,,-99.99,,2013-03-03 15:31:00,
2013-03-03 08:42:00,36.0,32.0,-100.00,SSE,157,5.0,6.0,87,0.08,,,-99.99,,2013-03-03 15:42:00,
2013-03-03 08:52:00,35.0,32.0,-100.00,South,169,4.0,5.0,88,0.04,,,-99.99,,2013-03-03 15:52:00,
2013-03-03 09:01:00,35.0,32.0,-100.00,South,169,4.0,5.0,88,0.04,,,-99.99,,2013-03-03 16:01:00,
2013-03-03 09:12:00,35.0,33.0,-100.00,South,191,2.0,3.0,89,0.00,,,-99.99,,2013-03-03 16:12:00,
2013-03-03 09:21:00,36.0,33.0,-100.00,SSE,167,2.0,3.0,90,0.00,,,-99.99,,2013-03-03 16:21:00,
2013-03-03 09:31:00,36.0,33.0,-100.00,SSE,167,2.0,3.0,90,0.00,,,-99.99,,2013-03-03 16:31:00,
2013-03-03 09:41:00,36.0,33.0,-100.00,South,179,3.0,4.0,90,0.00,,,-99.99,,2013-03-03 16:41:00,
2013-03-03 09:52:00,36.0,33.0,-100.00,SSW,198,3.0,3.0,90,0.00,,,-99.99,,2013-03-03 16:52:00,
2013-03-03 10:01:00,36.0,33.0,-100.00,SSW,198,3.0,3.0,90,0.00,,,-99.99,,2013-03-03 17:01:00,
2013-03-03 10:11:00,36.0,33.0,-100.00,South,184,1.0,2.0,90,0.00,,,-99.99,,2013-03-03 17:11:00,
2013-03-03 10:22:00,36.0,34.0,-100.00,ESE,106,2.0,3.0,89,0.04,,,-99.99,,2013-03-03 17:22:00,
2013-03-03 10:32:00,36.0,34.0,-100.00,ESE,106,2.0,3.0,89,0.04,,,-99.99,,2013-03-03 17:32:00,
2013-03-03 10:42:00,36.0,34.0,-100.00,ESE,106,2.0,3.0,89,0.04,,,-99.99,,2013-03-03 17:42:00,
2013-03-03 10:52:00,37.0,34.0,-100.00,SSE,151,4.0,5.0,88,0.04,,,-99.99,,2013-03-03 17:52:00,
2013-03-03 11:01:00,37.0,34.0,-100.00,SSE,151,4.0,5.0,88,0.04,,,-99.99,,2013-03-03 18:01:00,
2013-03-03 11:11:00,37.0,35.0,-100.00,SSE,160,3.0,6.0,89,0.08,,,-99.99,,2013-03-03 18:11:00,
2013-03-03 11:21:00,38.0,34.0,-100.00,South,174,8.0,12.0,87,0.08,,,-99.99,,2013-03-03 18:21:00,
2013-03-03 11:31:00,38.0,34.0,-100.00,South,174,8.0,12.0,87,0.08,,,-99.99,,2013-03-03 18:31:00,
2013-03-03 11:41:00,38.0,34.0,-100.00,SSW,198,11.0,16.0,84,0.00,,,-99.99,,2013-03-03 18:41:00,
2013-03-03 11:52:00,38.0,33.0,-100.00,South,171,10.0,13.0,82,0.00,,,-99.99,,2013-03-03 18:52:00,
2013-03-03 12:01:00,38.0,33.0,-100.00,South,171,10.0,13.0,82,0.00,,,-99.99,,2013-03-03 19:01:00,
2013-03-03 12:11:00,39.0,34.0,-100.00,SSE,148,2.0,3.0,81,0.00,,,-99.99,,2013-03-03 19:11:00,
2013-03-03 12:21:00,38.0,34.0,-100.00,South,191,4.0,7.0,85,0.04,,,-99.99,,2013-03-03 19:21:00,
2013-03-03 12:31:00,38.0,34.0,-100.00,South,191,4.0,7.0,85,0.04,,,-99.99,,2013-03-03 19:31:00,
2013-03-03 12:42:00,39.0,34.0,-100.00,SSE,162,9.0,12.0,81,0.00,,,-99.99,,2013-03-03 19:42:00,
2013-03-03 12:52:00,38.0,33.0,-100.00,South,172,5.0,9.0,82,0.00,,,-99.99,,2013-03-03 19:52:00,
2013-03-03 13:01:00,38.0,33.0,-100.00,South,172,5.0,9.0,82,0.00,,,-99.99,,2013-03-03 20:01:00,
2013-03-03 13:11:00,38.0,34.0,-100.00,WNW,302,4.0,5.0,87,0.08,,,-99.99,,2013-03-03 20:11:00,
2013-03-03 13:21:00,38.0,35.0,-100.00,NW,312,5.0,6.0,89,0.08,,,-99.99,,2013-03-03 20:21:00,
2013-03-03 13:32:00,38.0,35.0,-100.00,NW,312,5.0,6.0,89,0.08,,,-99.99,,2013-03-03 20:32:00,
2013-03-03 13:42:00,39.0,36.0,-100.00,SSE,148,2.0,4.0,90,0.04,,,-99.99,,2013-03-03 20:42:00,
2013-03-03 13:52:00,39.0,35.0,-100.00,SSE,165,5.0,7.0,87,0.08,,,-99.99,,2013-03-03 20:52:00,
2013-03-03 14:01:00,39.0,35.0,-100.00,SSE,165,5.0,7.0,87,0.08,,,-99.99,,2013-03-03 21:01:00,
2013-03-03 14:11:00,38.0,34.0,-100.00,ESE,109,9.0,11.0,84,0.00,,,-99.99,,2013-03-03 21:11:00,
2013-03-03 14:21:00,38.0,33.0,-100.00,SE,126,13.0,20.0,82,0.00,,,-99.99,,2013-03-03 21:21:00,
2013-03-03 14:31:00,38.0,33.0,-100.00,SE,126,13.0,20.0,82,0.00,,,-99.99,,2013-03-03 21:31:00,
2013-03-03 14:41:00,39.0,33.0,-100.00,SE,140,11.0,13.0,80,0.00,,,-99.99,,2013-03-03 21:41:00,
2013-03-03 14:52:00,39.0,34.0,-100.00,SSE,150,8.0,10.0,80,0.00,,,-99.99,,2013-03-03 21:52:00,
2013-03-03 15:01:00,39.0,34.0,-100.00,SSE,150,8.0,10.0,80,0.00,,,-99.99,,2013-03-03 22:01:00,
2013-03-03 15:11:00,39.0,34.0,-100.00,SSE,150,8.0,10.0,80,0.00,,,-99.99,,2013-03-03 22:11:00,
2013-03-03 15:21:00,39.0,32.0,-100.00,South,179,7.0,10.0,76,0.00,,,-99.99,,2013-03-03 22:21:00,
2013-03-03 15:31:00,39.0,32.0,-100.00,South,179,7.0,10.0,76,0.00,,,-99.99,,2013-03-03 22:31:00,
2013-03-03 15:42:00,39.0,33.0,-100.00,SSE,148,9.0,12.0,79,0.00,,,-99.99,,2013-03-03 22:42:00,
2013-03-03 15:52:00,39.0,33.0,-100.00,SSE,152,6.0,8.0,79,0.04,,,-99.99,,2013-03-03 22:52:00,
2013-03-03 16:01:00,39.0,33.0,-100.00,SSE,152,6.0,8.0,79,0.04,,,-99.99,,2013-03-03 23:01:00,
2013-03-03 16:11:00,39.0,32.0,-100.00,South,186,11.0,15.0,75,0.00,,,-99.99,,2013-03-03 23:11:00,
2013-03-03 16:21:00,40.0,32.0,-100.00,SE,145,14.0,19.0,73,0.00,,,-99.99,,2013-03-03 23:21:00,
2013-03-03 16:31:00,40.0,32.0,-100.00,SE,145,14.0,19.0,73,0.00,,,-99.99,,2013-03-03 23:31:00,
2013-03-03 16:41:00,39.0,33.0,-100.00,SE,145,8.0,10.0,79,0.00,,,-99.99,,2013-03-03 23:41:00,
2013-03-03 16:52:00,40.0,31.0,-100.00,SE,133,6.0,9.0,70,0.00,,,-99.99,,2013-03-03 23:52:00,
2013-03-03 17:01:00,40.0,31.0,-100.00,SE,133,6.0,9.0,70,0.00,,,-99.99,,2013-03-04 00:01:00,
2013-03-03 17:11:00,39.0,31.0,-100.00,SSE,154,8.0,11.0,72,0.00,,,-99.99,,2013-03-04 00:11:00,
2013-03-03 17:21:00,39.0,31.0,-100.00,SSE,154,8.0,11.0,72,0.00,,,-99.99,,2013-03-04 00:21:00,
2013-03-03 17:32:00,39.0,31.0,-100.00,SSE,154,8.0,11.0,72,0.00,,,-99.99,,2013-03-04 00:32:00,
2013-03-03 17:41:00,39.0,31.0,-100.00,SSE,154,8.0,11.0,72,0.00,,,-99.99,,2013-03-04 00:41:00,
2013-03-03 17:52:00,41.0,29.0,-100.00,SSE,155,5.0,6.0,63,0.00,,,-99.99,,2013-03-04 00:52:00,
2013-03-03 18:01:00,41.0,29.0,-100.00,SSE,155,5.0,6.0,63,0.00,,,-99.99,,2013-03-04 01:01:00,
2013-03-03 18:11:00,40.0,29.0,-100.00,South,188,6.0,11.0,65,0.00,,,-99.99,,2013-03-04 01:11:00,
2013-03-03 18:21:00,39.0,30.0,-100.00,SE,137,9.0,11.0,72,0.00,,,-99.99,,2013-03-04 01:21:00,
2013-03-03 18:31:00,39.0,30.0,-100.00,SE,137,9.0,11.0,72,0.00,,,-99.99,,2013-03-04 01:31:00,
2013-03-03 18:42:00,39.0,29.0,-100.00,East,86,6.0,8.0,68,0.00,,,-99.99,,2013-03-04 01:42:00,
2013-03-03 18:52:00,40.0,27.0,-100.00,WNW,288,8.0,11.0,60,0.00,,,-99.99,,2013-03-04 01:52:00,
2013-03-03 19:01:00,40.0,27.0,-100.00,WNW,288,8.0,11.0,60,0.00,,,-99.99,,2013-03-04 02:01:00,
2013-03-03 19:11:00,40.0,27.0,-100.00,WSW,247,5.0,8.0,59,0.00,,,-99.99,,2013-03-04 02:11:00,
2013-03-03 19:22:00,40.0,25.0,-100.00,SE,130,6.0,10.0,56,0.00,,,-99.99,,2013-03-04 02:22:00,
2013-03-03 19:31:00,40.0,25.0,-100.00,SE,130,6.0,10.0,56,0.00,,,-99.99,,2013-03-04 02:31:00,
2013-03-03 19:41:00,38.0,26.0,-100.00,WSW,258,5.0,8.0,59,0.00,,,-99.99,,2013-03-04 02:41:00,
2013-03-03 19:52:00,39.0,25.0,-100.00,NNW,337,5.0,7.0,57,0.00,,,-99.99,,2013-03-04 02:52:00,
2013-03-03 20:01:00,39.0,25.0,-100.00,NNW,337,5.0,7.0,57,0.00,,,-99.99,,2013-03-04 03:01:00,
2013-03-03 20:11:00,38.0,23.0,-100.00,WNW,291,8.0,14.0,53,0.00,,,-99.99,,2013-03-04 03:11:00,
2013-03-03 20:21:00,38.0,23.0,-100.00,South,171,9.0,15.0,53,0.00,,,-99.99,,2013-03-04 03:21:00,
2013-03-03 20:31:00,38.0,23.0,-100.00,South,171,9.0,15.0,53,0.00,,,-99.99,,2013-03-04 03:31:00,
2013-03-03 20:41:00,38.0,22.0,-100.00,WNW,288,7.0,10.0,53,0.00,,,-99.99,,2013-03-04 03:41:00,
2013-03-03 20:52:00,38.0,21.0,-100.00,NNW,328,4.0,8.0,50,0.00,,,-99.99,,2013-03-04 03:52:00,
2013-03-03 21:01:00,38.0,21.0,-100.00,NNW,328,4.0,8.0,50,0.00,,,-99.99,,2013-03-04 04:01:00,
2013-03-03 21:11:00,37.0,22.0,-100.00,WNW,291,14.0,20.0,53,0.00,,,-99.99,,2013-03-04 04:11:00,
2013-03-03 21:22:00,37.0,21.0,-100.00,WNW,294,8.0,10.0,51,0.00,,,-99.99,,2013-03-04 04:22:00,
2013-03-03 21:31:00,37.0,21.0,-100.00,WNW,294,8.0,10.0,51,0.00,,,-99.99,,2013-03-04 04:31:00,
2013-03-03 21:42:00,37.0,21.0,-100.00,ENE,65,4.0,8.0,52,0.00,,,-99.99,,2013-03-04 04:42:00,
2013-03-03 21:52:00,37.0,20.0,-100.00,SSE,160,3.0,5.0,50,0.00,,,-99.99,,2013-03-04 04:52:00,
2013-03-03 22:01:00,37.0,20.0,-100.00,SSE,160,3.0,5.0,50,0.00,,,-99.99,,2013-03-04 05:01:00,
2013-03-03 22:11:00,36.0,19.0,-100.00,NW,305,5.0,9.0,49,0.00,,,-99.99,,2013-03-04 05:11:00,
2013-03-03 22:22:00,35.0,19.0,-100.00,West,264,5.0,7.0,50,0.00,,,-99.99,,2013-03-04 05:22:00,
2013-03-03 22:31:00,35.0,19.0,-100.00,West,264,5.0,7.0,50,0.00,,,-99.99,,2013-03-04 05:31:00,
2013-03-03 22:42:00,35.0,16.0,-100.00,WNW,292,9.0,11.0,44,0.00,,,-99.99,,2013-03-04 05:42:00,
2013-03-03 22:52:00,36.0,12.0,-100.00,North,354,5.0,8.0,37,0.00,,,-99.99,,2013-03-04 05:52:00,
2013-03-03 23:01:00,36.0,12.0,-100.00,North,354,5.0,8.0,37,0.00,,,-99.99,,2013-03-04 06:01:00,
2013-03-03 23:11:00,35.0,11.0,-100.00,NW,322,9.0,12.0,36,0.00,,,-99.99,,2013-03-04 06:11:00,
2013-03-03 23:21:00,35.0,11.0,-100.00,NW,322,9.0,12.0,36,0.00,,,-99.99,,2013-03-04 06:21:00,
2013-03-03 23:31:00,35.0,11.0,-100.00,NW,322,9.0,12.0,36,0.00,,,-99.99,,2013-03-04 06:31:00,
2013-03-03 23:42:00,35.0,9.0,-100.00,North,3,5.0,9.0,33,0.00,,,-99.99,,2013-03-04 06:42:00,
2013-03-03 23:52:00,34.0,7.0,-100.00,WNW,301,2.0,4.0,31,0.00,,,-99.99,,2013-03-04 06:52:00,